Simultaneous Nadir Overpasses (SNOs) Predictions

Prediction of SNOs between AQUA and METOP-A Satellite Orbit:

Table of predicted SNOs for the next 14.0 days since TLE Epoch: 7/17/2021
Index Date (AQUA) Time (AQUA) Lat,Lon (AQUA) SZA (AQUA ) Date (METOP-A) Time (METOP-A) Lat,Lon (METOP-A) SZA (METOP-A ) Distance(km) Time Diff (sec)
1 07/17/2021 14:30:12 77.56, -54.27 57.10 07/17/2021 14:29:16 77.54, -54.21 57.09 2.72 56
2 07/17/2021 15:19:38 -77.58, 113.30 122.88 07/17/2021 15:19:56 -77.59, 113.36 122.87 2.25 18
3 07/20/2021 10:04:28 77.55, 12.19 57.61 07/20/2021 10:03:37 77.55, 12.17 57.62 0.83 51
4 07/20/2021 10:53:54 -77.57, 179.76 122.37 07/20/2021 10:54:17 -77.60, 179.75 122.34 3.84 23
5 07/23/2021 05:38:43 77.55, 78.62 58.16 07/23/2021 05:37:57 77.55, 78.54 58.19 1.90 46
6 07/23/2021 06:28:10 -77.61,-113.98 121.76 07/23/2021 06:28:37 -77.61,-113.86 121.77 2.71 27
7 07/26/2021 01:12:59 77.56, 145.04 58.77 07/26/2021 01:12:18 77.56, 144.91 58.80 3.18 41
8 07/26/2021 02:02:26 -77.61, -47.54 121.16 07/26/2021 02:02:58 -77.62, -47.48 121.16 1.95 32
9 07/28/2021 20:47:15 77.56,-148.56 59.42 07/28/2021 20:46:39 77.57,-148.73 59.45 4.11 36
10 07/28/2021 21:36:42 -77.62, 18.87 120.51 07/28/2021 21:37:19 -77.63, 18.89 120.51 1.73 37



Historial Predications of SNOs between AQUA and METOP-A
